Location: Fredericton
(45.9636°N, 66.6431°W)
Time: 13:18:59
(UTC-04:00)

ISS - Visible Passes

Search period start: 21 November 2017 00:00
Search period end: 01 December 2017 00:00
Orbit: 402 x 407 km, 51.6° (Epoch: 22 November)

Date Brightness Start Highest point End Pass type
(mag) Time Alt. Az. Time Alt. Az. Time Alt. Az.
27 Nov -2.2 18:43:52 10° SSW 18:45:52 26° S 18:45:52 26° S visible
28 Nov -2.0 17:52:17 10° S 17:54:37 18° SE 17:55:51 15° ESE visible
28 Nov -1.0 19:27:30 10° WSW 19:28:31 19° WSW 19:28:31 19° WSW visible
29 Nov -3.8 18:35:10 10° SW 18:38:25 66° SSE 18:38:25 66° SSE visible
30 Nov -3.0 17:43:02 10° SSW 17:46:06 38° SE 17:48:14 17° E visible
30 Nov -1.4 19:19:23 10° W 19:20:53 23° W 19:20:53 23° W visible
